| time (UTC) | temp C | wind direction | speed KPH | gust KPH | rain 1hr cm | rain 24hr cm | rain mn cm | humidity % | barometer mb |
| 20260506093615 | 9 | 100 | 0.0 | 1.6 | 0.00 | 0.00 | 0.00 | 63 | 1016.6 |
| 20260506093115 | 9 | 78 | 0.0 | 0.0 | 0.00 | 0.00 | 0.00 | 61 | 1016.7 |
| 20260506083115 | 8 | 198 | 0.0 | 4.8 | 0.00 | 0.00 | 0.00 | 67 | 1017.2 |
| 20260506080615 | 8 | 163 | 0.0 | 0.0 | 0.00 | 0.00 | 0.00 | 71 | 1017.2 |
| 20260506080115 | 8 | 198 | 0.0 | 0.0 | 0.00 | 0.00 | 0.00 | 75 | 1017.2 |
| 20260506073115 | 6 | 111 | 0.0 | 0.0 | 0.00 | 0.00 | 0.00 | 77 | 1017.3 |
| 20260506070615 | 5 | 131 | 0.0 | 0.0 | 0.00 | 0.00 | 0.00 | 81 | 1017.4 |
| 20260506070115 | 5 | 131 | 0.0 | 0.0 | 0.00 | 0.00 | 0.00 | 82 | 1017.4 |
| 20260506060615 | 3 | 103 | 0.0 | 0.0 | 0.00 | 0.00 | 0.00 | 81 | 1017.2 |
| 20260506060114 | 3 | 103 | 0.0 | 0.0 | 0.00 | 0.00 | 0.00 | 81 | 1017.2 |
| 20260506050614 | 3 | 103 | 0.0 | 0.0 | 0.00 | 0.00 | 0.00 | 82 | 1017.3 |
| 20260506050114 | 3 | 103 | 0.0 | 0.0 | 0.00 | 0.00 | 0.00 | 82 | 1017.3 |
| 20260506043614 | 2 | 103 | 0.0 | 0.0 | 0.00 | 0.00 | 0.00 | 82 | 1017.2 |
| 20260506043116 | 2 | 103 | 0.0 | 0.0 | 0.00 | 0.00 | 0.00 | 83 | 1017.2 |
| 20260506040615 | 2 | 140 | 0.0 | 0.0 | 0.00 | 0.00 | 0.00 | 83 | 1017.1 |
| 20260506040114 | 2 | 140 | 0.0 | 0.0 | 0.00 | 0.00 | 0.00 | 83 | 1017.1 |
| 20260506033615 | 2 | 140 | 0.0 | 0.0 | 0.00 | 0.00 | 0.00 | 83 | 1017.2 |
| 20260506033114 | 2 | 140 | 0.0 | 0.0 | 0.00 | 0.00 | 0.00 | 83 | 1017.2 |
| 20260506030615 | 2 | 140 | 0.0 | 0.0 | 0.00 | 0.00 | 0.00 | 83 | 1017.3 |
| 20260506030115 | 3 | 140 | 0.0 | 0.0 | 0.00 | 0.00 | 0.00 | 83 | 1017.4 |
| 20260506023614 | 2 | 140 | 0.0 | 0.0 | 0.00 | 0.00 | 0.00 | 83 | 1017.5 |
| 20260506023114 | 2 | 140 | 0.0 | 0.0 | 0.00 | 0.00 | 0.00 | 83 | 1017.5 |
| 20260506020615 | 2 | 140 | 0.0 | 0.0 | 0.00 | 0.00 | 0.00 | 83 | 1017.5 |
| 20260506020114 | 3 | 140 | 0.0 | 0.0 | 0.00 | 0.00 | 0.00 | 83 | 1017.6 |
| 20260506013615 | 3 | 140 | 0.0 | 0.0 | 0.00 | 0.00 | 0.00 | 83 | 1017.6 |
| 20260506013115 | 3 | 140 | 0.0 | 0.0 | 0.00 | 0.00 | 0.00 | 83 | 1017.7 |
| 20260506010615 | 3 | 140 | 0.0 | 0.0 | 0.00 | 0.00 | 0.00 | 81 | 1017.8 |
| 20260506003614 | 3 | 140 | 0.0 | 0.0 | 0.00 | 0.00 | 0.00 | 79 | 1018.0 |
| 20260506003114 | 3 | 185 | 0.0 | 0.0 | 0.00 | 0.00 | 0.00 | 74 | 1018.0 |
| 20260505233615 | 4 | 215 | 0.0 | 0.0 | 0.00 | 0.00 | 0.00 | 76 | 1018.1 |
| 20260505233114 | 4 | 215 | 0.0 | 0.0 | 0.00 | 0.00 | 0.00 | 77 | 1018.1 |
| 20260505230615 | 4 | 215 | 0.0 | 0.0 | 0.00 | 0.00 | 0.00 | 77 | 1018.1 |
| 20260505230114 | 4 | 215 | 0.0 | 0.0 | 0.00 | 0.00 | 0.00 | 78 | 1018.1 |
| 20260505223614 | 5 | 215 | 0.0 | 0.0 | 0.00 | 0.00 | 0.00 | 78 | 1018.1 |
| 20260505223115 | 5 | 215 | 0.0 | 0.0 | 0.00 | 0.00 | 0.00 | 77 | 1018.1 |
| 20260505220614 | 5 | 216 | 0.0 | 0.0 | 0.00 | 0.00 | 0.00 | 77 | 1018.2 |
| 20260505220115 | 5 | 216 | 0.0 | 0.0 | 0.00 | 0.00 | 0.00 | 76 | 1018.2 |
| 20260505213615 | 5 | 216 | 0.0 | 0.0 | 0.00 | 0.00 | 0.00 | 74 | 1018.1 |
| 20260505213115 | 5 | 219 | 0.0 | 0.0 | 0.00 | 0.00 | 0.00 | 74 | 1018.1 |
| 20260505210615 | 6 | 261 | 0.0 | 0.0 | 0.00 | 0.00 | 0.00 | 72 | 1018.1 |
| 20260505210114 | 6 | 233 | 0.0 | 0.0 | 0.00 | 0.00 | 0.00 | 72 | 1018.1 |
| 20260505203614 | 6 | 248 | 0.0 | 0.0 | 0.00 | 0.00 | 0.00 | 70 | 1018.1 |
| 20260505203114 | 6 | 276 | 0.0 | 0.0 | 0.00 | 0.00 | 0.00 | 70 | 1018.1 |
| 20260505200614 | 6 | 266 | 0.0 | 0.0 | 0.00 | 0.00 | 0.00 | 71 | 1018.0 |
| 20260505200115 | 6 | 270 | 0.0 | 0.0 | 0.00 | 0.00 | 0.00 | 70 | 1017.9 |
| 20260505193613 | 6 | 265 | 0.0 | 0.0 | 0.00 | 0.00 | 0.00 | 70 | 1018.0 |
| 20260505193115 | 6 | 256 | 0.0 | 0.0 | 0.00 | 0.00 | 0.00 | 70 | 1017.9 |
| 20260505190614 | 6 | 244 | 0.0 | 0.0 | 0.00 | 0.00 | 0.00 | 70 | 1017.7 |
| 20260505183614 | 6 | 262 | 0.0 | 0.0 | 0.00 | 0.00 | 0.00 | 71 | 1017.6 |
| 20260505183115 | 6 | 248 | 0.0 | 0.0 | 0.00 | 0.00 | 0.00 | 70 | 1017.6 |
| 20260505180615 | 7 | 278 | 0.0 | 0.0 | 0.00 | 0.00 | 0.00 | 70 | 1017.5 |
| 20260505180115 | 7 | 268 | 0.0 | 0.0 | 0.00 | 0.00 | 0.00 | 69 | 1017.5 |
| 20260505173614 | 7 | 258 | 0.0 | 0.0 | 0.00 | 0.00 | 0.00 | 70 | 1017.6 |
| 20260505173115 | 7 | 257 | 0.0 | 14.5 | 0.00 | 0.00 | 0.00 | 72 | 1017.6 |
| 20260505170614 | 7 | 272 | 0.0 | 0.0 | 0.00 | 0.00 | 0.00 | 72 | 1017.5 |
| 20260505170114 | 7 | 275 | 0.0 | 1.6 | 0.00 | 0.00 | 0.00 | 71 | 1017.5 |
| 20260505163613 | 7 | 274 | 0.0 | 0.0 | 0.00 | 0.00 | 0.00 | 71 | 1017.2 |
| 20260505163114 | 7 | 277 | 0.0 | 8.0 | 0.00 | 0.00 | 0.00 | 70 | 1017.2 |
| 20260505160613 | 8 | 263 | 0.0 | 0.0 | 0.00 | 0.00 | 0.00 | 72 | 1017.1 |
| 20260505160114 | 8 | 275 | 0.0 | 11.3 | 0.00 | 0.00 | 0.00 | 71 | 1017.1 |
| 20260505153114 | 8 | 285 | 0.0 | 19.3 | 0.00 | 0.00 | 0.00 | 72 | 1017.0 |
| 20260505150614 | 8 | 267 | 0.0 | 11.3 | 0.00 | 0.00 | 0.00 | 73 | 1017.0 |
| 20260505150113 | 8 | 260 | 1.6 | 8.0 | 0.00 | 0.00 | 0.00 | 75 | 1017.1 |
| 20260505140613 | 7 | 264 | 0.0 | 0.0 | 0.00 | 0.00 | 0.00 | 76 | 1016.8 |
| 20260505140113 | 7 | 260 | 0.0 | 19.3 | 0.00 | 0.00 | 0.00 | 75 | 1016.7 |
| 20260505130113 | 9 | 281 | 0.0 | 16.1 | 0.00 | 0.00 | 0.00 | 74 | 1016.5 |
| 20260505123613 | 10 | 264 | 0.0 | 0.0 | 0.00 | 0.00 | 0.00 | 69 | 1016.3 |
| 20260505123113 | 10 | 250 | 0.0 | 14.5 | 0.00 | 0.00 | 0.00 | 66 | 1016.3 |
| 20260505120613 | 10 | 237 | 1.6 | 12.9 | 0.00 | 0.00 | 0.00 | 70 | 1016.3 |
| 20260505120114 | 10 | 264 | 0.0 | 0.0 | 0.00 | 0.00 | 0.00 | 70 | 1016.3 |
| 20260505113613 | 9 | 243 | 0.0 | 0.0 | 0.00 | 0.00 | 0.00 | 71 | 1016.3 |
| 20260505113114 | 9 | 251 | 0.0 | 8.0 | 0.00 | 0.00 | 0.00 | 72 | 1016.2 |
| 20260505110613 | 8 | 248 | 0.0 | 0.0 | 0.00 | 0.00 | 0.00 | 73 | 1016.2 |
| 20260505110113 | 8 | 248 | 0.0 | 19.3 | 0.00 | 0.00 | 0.00 | 73 | 1016.2 |
| 20260505100113 | 8 | 244 | 0.0 | 25.7 | 0.00 | 0.00 | 0.00 | 71 | 1015.8 |